RAAF Base Richmond

Airport
ICAO code: 
YSRI
IATA Code: 
RCM
Summary
ICAO Region: 
APAC
Territory: 
Location: 
Hawkesbury, New South Wales
Serving: 
Richmond
Elevation: 
1 ft
Coordinates: 
Aerial View: 
33° 36' 15.341" S, 150° 46' 55.351" E
Metar
Observation
YSRI 190100Z AUTO 20008KT 9999 // SCT023 BKN032 BKN045 20/19 Q1020
Station
Richmond Aus-Afb
Date/Time
2022-01-19 01:00:00
Wind direction
200°
Wind speed
08 kts
Lowest cloud amount
scattered clouds
Temperature
20°C
Dew point
19°C
Humidity
93%
QNH
1020 hPa
Weather condition
n/a

Royal Australian Air Force base on northern outskirts of Sydney; home to the Air Lift Group.

Climatology

Temperate Marine climate/Oceanic climate (Köppen climate classification Cfb). Moderately cool summer and comparatively warm winter

Runways

Designator Length Width Surface Rops
10/28 2134 45 ASP Yes/Yes
Airport map: 
Aerial View: 

SKYbrary Partners:

Safety knowledge contributed by: